Location: Breitenfeld
(46.8500°N, 15.6333°E)
Time: 09:25:07
(UTC+00:00)

ATLAS 5 CENTAUR R/B - Pass Details

Date: 09 April 2020
Orbit: 543 x 1116 km, 63.4° (Epoch: 01 May)

Event Time Altitude Azimuth Distance (km) Brightness Sun altitude
Rises 20:00:11 0° 252° (WSW) 2,770 5.3 -22.4°
Reaches altitude 10° 20:02:32 10° 265° (W) 1,925 4.6 -22.7°
Maximum altitude 20:06:19 29° 326° (NW) 1,184 3.6 -23.1°
Drops below altitude 10° 20:10:33 10° 26° (NNE) 2,175 4.5 -23.7°
Sets 20:13:23 0° 38° (NE) 3,203 5.3 -24.0°
